This is the latest recevied weather packets stored in our database for station/object N5PA. If no packets are shown the sender has not sent any weather packets the latest 10 day(s).
| Time | Temp. | Humidity | Pressure | Rain* | Wind** | Luminosity | Snow |
|---|---|---|---|---|---|---|---|
| 1777764608 | 21.11° C | 33% | 1016.4 hPa | 0 mm | - | 1028 W/m² | - |
| 1777764309 | 21.11° C | 34% | 1016.4 hPa | 0 mm | - | 1030 W/m² | - |
| 1777764009 | 21.11° C | 34% | 1016.4 hPa | 0 mm | - | 1030 W/m² | - |
| 1777763709 | 21.11° C | 34% | 1016.4 hPa | 0 mm | - | 1032 W/m² | - |
| 1777763408 | 21.11° C | 32% | 1016.3 hPa | 0 mm | - | 1034 W/m² | - |
| 1777763108 | 21.67° C | 34% | 1016.3 hPa | 0 mm | - | 1034 W/m² | - |
| 1777762809 | 21.67° C | 36% | 1016.3 hPa | 0 mm | - | 1030 W/m² | - |
| 1777762509 | 21.67° C | 32% | 1016.3 hPa | 0 mm | - | 1034 W/m² | - |
| 1777762208 | 21.67° C | 34% | 1016.3 hPa | 0 mm | - | 1028 W/m² | - |
| 1777761909 | 21.67° C | 33% | 1016.4 hPa | 0 mm | - | 1021 W/m² | - |
| 1777761607 | 21.67° C | 32% | 1016.3 hPa | 0 mm | - | 1030 W/m² | - |
| 1777761308 | 21.67° C | 32% | 1016.2 hPa | 0 mm | - | 1030 W/m² | - |
| 1777761008 | 21.67° C | 32% | 1016.2 hPa | 0 mm | - | 1027 W/m² | - |
| 1777760708 | 21.67° C | 33% | 1016.1 hPa | 0 mm | - | 1025 W/m² | - |
| 1777760409 | 21.67° C | 35% | 1016.1 hPa | 0 mm | - | 1032 W/m² | - |
| 1777760109 | 21.67° C | 35% | 1016 hPa | 0 mm | - | 1025 W/m² | - |
| 1777759809 | 21.67° C | 33% | 1016 hPa | 0 mm | - | 1020 W/m² | - |
| 1777759508 | 21.67° C | 32% | 1016 hPa | 0 mm | - | 1025 W/m² | - |
| 1777759209 | 21.67° C | 31% | 1016 hPa | 0 mm | - | 1023 W/m² | - |
| 1777758908 | 21.67° C | 32% | 1016 hPa | 0 mm | - | 1025 W/m² | - |
| 1777758607 | 21.67° C | 33% | 1015.9 hPa | 0 mm | - | 1025 W/m² | - |
| 1777758309 | 21.67° C | 33% | 1016 hPa | 0 mm | - | 1021 W/m² | - |
| 1777758008 | 21.67° C | 33% | 1016 hPa | 0 mm | - | 1023 W/m² | - |
| 1777757708 | 21.67° C | 31% | 1016.1 hPa | 0 mm | - | 1028 W/m² | - |
| 1777757410 | 21.67° C | 31% | 1016.1 hPa | 0 mm | - | 1027 W/m² | - |
* Rain latest hour (hover to see other rain measurements)
** Current wind speed in m/s (hover to see current wind gust speed)